[[{"header":{"parameterUnit":"m.s-1","parameterCategory":1,"la1":30.2991,"la2":30.254,"lo1":-89.0895,"lo2":-89.0444,"dy":0.0017,"dx":0.0017,"nx":28,"ny":28,"refTime":"2024-11-28T09:00:00:Z","depth":0,"parameterNumber":2,"parameterNumberName":"U-component_of_WINDS"},"data":[0,0,0,0,0,0,0,0,0,0,0,0,0,0,0,0,0,0,0,0,0,0,0,0,0,0,0,0,0,0,0,0,0,0,0,0,0,0,0,0,0,0,0,0,0,0,0,0,0,0,0,0,0,0,0,0,0,0,-2.0452,-2.0453,0,-2.0494,-2.0495,-2.0495,-2.0454,-2.0452,-2.0451,-2.0449,-2.0492,-2.0495,-2.0498,0,0,0,0,0,0,0,0,0,0,0,0,0,-2.0335,-2.0337,-2.0452,-2.0453,-2.0453,-2.0494,-2.0495,-2.0495,-2.0454,-2.0452,-2.045,-2.0448,-2.0492,-2.0495,-2.0498,0,0,0,0,0,0,0,0,0,0,0,0,0,-2.0382,-2.0338,-2.0452,-2.0438,-2.0437,-2.0494,-2.0495,-2.0496,-2.0455,-2.0452,-2.045,-2.0448,-2.049,-2.0494,-2.0498,-2.0572,0,0,-2.0511,-2.0512,0,0,0,0,0,0,0,0,-2.038,-2.0387,-2.0439,-2.0439,-2.0438,-2.0466,-2.0469,-2.0521,-2.0455,-2.0448,-2.0449,-2.0446,-2.0486,-2.049,-2.0503,-2.0574,-2.0576,-2.0511,-2.0513,-2.0515,-2.0516,0,0,0,0,0,0,0,-2.0376,-2.0384,-2.0469,-2.044,-2.0439,-2.0429,-2.0433,-2.0479,-2.048,-2.0448,-2.0445,-2.0451,-2.0485,-2.05,-2.0504,-2.0577,-2.0511,-2.0514,-2.0517,-2.0518,-2.0709,-2.0712,0,0,0,0,0,0,-2.0375,-2.0382,-2.0467,-2.047,-2.0402,-2.0433,-2.0437,-2.046,-2.0479,-2.048,-2.0453,-2.0449,-2.0494,-2.0499,-2.0505,-2.0593,-2.0515,-2.0519,-2.0521,-2.0706,-2.071,-2.0712,0,0,0,0,0,0,-2.0372,-2.0383,-2.0466,-2.0425,-2.0435,-2.0437,-2.0463,-2.0462,-2.0476,-2.0483,-2.0483,-2.0468,-2.0492,-2.05,-2.0556,-2.0594,-2.0521,-2.0524,-2.0703,-2.0707,-2.0711,-2.0769,0,0,0,0,0,0,-2.0369,-2.0382,-2.0411,-2.0426,-2.0437,-2.0516,-2.0465,-2.0464,-2.0483,-2.0478,-2.0497,-2.0498,-2.0491,-2.055,-2.056,-2.0598,-2.0527,-2.07,-2.0705,-2.071,-2.0763,-2.0774,-2.0783,0,0,0,0,0,-2.0365,-2.0425,-2.0412,-2.0423,-2.0473,-2.0518,-2.0525,-2.0516,-2.0487,-2.0515,-2.0519,-2.0497,-2.0588,-2.0556,-2.0567,-2.0607,-2.0697,-2.0704,-2.0709,-2.0759,-2.0772,-2.0783,0,0,0,0,0,0,-2.0414,-2.0427,-2.0413,-2.048,-2.0498,-2.0511,-2.0547,-2.053,-2.0557,-2.0551,-2.0538,-2.0543,-2.0602,-2.061,-2.0574,-2.0679,-2.0638,-2.0646,-2.0672,-2.0684,-2.0694,-2.0691,-2.0531,0,0,0,0,0,-2.0433,-2.0469,-2.0478,-2.0536,-2.0546,-2.0545,-2.0564,-2.0556,-2.0574,-2.0582,-2.059,-2.0608,-2.0641,-2.0663,-2.0693,-2.0764,-2.0767,-2.0796,-2.0806,-2.0814,-2.0822,-2.0859,-2.0873,-2.0732,-2.0732,-2.0732,0,0,-2.0472,-2.0483,-2.0507,-2.0546,-2.0559,-2.0597,-2.0552,-2.0593,-2.062,-2.0588,-2.0641,-2.0648,-2.0667,-2.0731,-2.0759,-2.0739,-2.0861,-2.0822,-2.0828,-2.0832,-2.0867,-2.088,-2.0892,-2.0736,-2.0735,-2.0735,0,0,-2.0562,-2.0574,-2.0624,-2.0638,-2.0658,-2.0657,-2.0669,-2.0684,-2.0687,-2.074,-2.0716,-2.0748,-2.0805,-2.082,-2.0835,-2.0929,-2.091,-2.0939,-2.0992,-2.1028,-2.1039,-2.1049,-2.1083,-2.1095,-2.0947,-2.0947,-2.0947,0,-2.0608,-2.0663,-2.0652,-2.0695,-2.0712,-2.0684,-2.0734,-2.0748,-2.0777,-2.079,-2.0767,-2.0837,-2.0848,-2.0914,-2.0937,-2.095,-2.0963,-2.0938,-2.1039,-2.1048,-2.1057,-2.1089,-2.1102,-2.095,-2.095,-2.0949,-2.0949,0,-2.0719,-2.0757,-2.0795,-2.0824,-2.0846,-2.0892,-2.0887,-2.091,-2.0899,-2.09,-2.0954,-2.0966,-2.0999,-2.1013,-2.1003,-2.1078,-2.1065,-2.104,-2.0999,-2.1074,-2.1104,-2.1116,-2.0955,-2.0954,-2.0953,-2.0952,0,0,-2.0843,-2.0864,-2.0878,-2.089,-2.091,-2.0939,-2.0984,-2.1015,-2.1035,-2.1056,-2.1093,-2.114,-2.1117,-2.1135,-2.1125,-2.1157,-2.1231,-2.1129,-2.1129,-2.1148,-2.1314,-2.1333,-2.1347,-2.1218,-2.122,-2.1222,-2.1312,0,-2.0934,-2.1012,-2.1002,-2.1076,-2.1111,-2.1084,-2.1122,-2.1138,-2.114,-2.117,-2.1171,-2.1205,-2.1172,-2.1182,-2.1213,-2.1216,-2.1264,-2.1209,-2.1252,-2.1254,-2.1249,-2.1363,-2.1384,-2.1469,-2.1324,-2.1326,-2.1327,0,-2.1051,-2.1076,-2.1154,-2.1167,-2.1181,-2.1217,-2.1244,-2.1273,-2.129,-2.1288,-2.1307,-2.1292,-2.1335,-2.1293,-2.1353,-2.1315,-2.1332,-2.1336,-2.1339,-2.1343,-2.1296,-2.1371,-2.1496,-2.1509,-2.1346,-2.1344,-2.1343,0,-2.1134,-2.1187,-2.124,-2.1251,-2.1268,-2.1294,-2.1302,-2.1316,-2.1335,-2.1359,-2.1371,-2.1399,-2.1415,-2.1437,-2.143,-2.1399,-2.1491,-2.1448,-2.1491,-2.1492,-2.1513,-2.1512,-2.1643,-2.1523,-2.1522,-2.1522,-2.1522,0,-2.1238,-2.1286,-2.1278,-2.1311,-2.1364,-2.1351,-2.1405,-2.1409,-2.1422,-2.1455,-2.1433,-2.1464,-2.1452,-2.1482,-2.1476,-2.1527,-2.1534,-2.1534,-2.1532,-2.1536,-2.1536,-2.1548,-2.1542,-2.1525,-2.1525,-2.1524,-2.1523,0,-2.134,-2.1336,-2.1393,-2.1404,-2.1407,-2.1446,-2.1456,-2.1486,-2.1485,-2.1527,-2.1536,-2.1535,-2.1569,-2.1563,-2.1601,-2.1597,-2.166,-2.1651,-2.1655,-2.1653,-2.1697,-2.1693,-2.184,-2.1859,-2.1726,-2.1727,-2.1728,0,-2.1407,-2.1444,-2.1459,-2.1479,-2.1489,-2.1522,-2.1541,-2.153,-2.1551,-2.1572,-2.16,-2.1632,-2.1657,-2.1713,-2.1715,-2.1744,-2.1735,-2.1785,-2.174,-2.1743,-2.1737,-2.1735,-2.1738,-2.1794,-2.1796,-2.1797,-2.1798,0,-2.1526,-2.1522,-2.1551,-2.1579,-2.1602,-2.1623,-2.1642,-2.166,-2.165,-2.1674,-2.1709,-2.1729,-2.1767,-2.1799,-2.1826,-2.1833,-2.1814,-2.1812,-2.1824,-2.1829,-2.183,-2.183,-2.168,-2.1809,-2.1808,-2.1807,-2.1807,-2.1806,-2.1613,-2.1644,-2.166,-2.1692,-2.1705,-2.1723,-2.1752,-2.1754,-2.1783,-2.1814,-2.1805,-2.1844,-2.1859,-2.1892,-2.1903,-2.1933,-2.1915,-2.1931,-2.1936,-2.194,-2.1946,-2.1825,-2.1938,-2.1937,-2.1937,-2.1937,-2.1936,0,-2.1731,-2.1739,-2.1769,-2.1796,-2.1822,-2.1801,-2.182,-2.1843,-2.1878,-2.1893,-2.1918,-2.1958,-2.1988,-2.1992,-2.2021,-2.2044,-2.2036,-2.2052,-2.2051,-2.2053,-2.1961,-2.1948,-2.2058,-2.2058,-2.2058,-2.2058,-2.2058,-2.2058,-2.1796,-2.1848,-2.1845,-2.1903,-2.191,-2.1949,-2.1962,-2.1978,-2.199,-2.2035,-2.206,-2.2063,-2.2073,-2.2102,-2.2129,-2.2129,-2.2141,-2.2161,-2.2158,-2.2072,-2.206,-2.2048,-2.2036,-2.2163,-2.2164,-2.2248,-2.2249,-2.2249]},{"header":{"parameterUnit":"m.s-1","parameterCategory":1,"la1":30.2991,"la2":30.254,"lo1":-89.0895,"lo2":-89.0444,"dy":0.0017,"dx":0.0017,"nx":28,"ny":28,"refTime":"2024-11-28T09:00:00:Z","depth":0,"parameterNumber":3,"parameterNumberName":"V-component_of_WINDS"},"data":[0,0,0,0,0,0,0,0,0,0,0,0,0,0,0,0,0,0,0,0,0,0,0,0,0,0,0,0,0,0,0,0,0,0,0,0,0,0,0,0,0,0,0,0,0,0,0,0,0,0,0,0,0,0,0,0,0,0,-6.3659,-6.366,0,-6.3761,-6.3762,-6.3764,-6.3706,-6.3703,-6.3701,-6.3698,-6.3796,-6.3801,-6.3806,0,0,0,0,0,0,0,0,0,0,0,0,0,-6.3408,-6.3413,-6.3659,-6.366,-6.3662,-6.3761,-6.3763,-6.3764,-6.3707,-6.3703,-6.37,-6.3697,-6.3794,-6.38,-6.3807,0,0,0,0,0,0,0,0,0,0,0,0,0,-6.3514,-6.3414,-6.3659,-6.3645,-6.3645,-6.3761,-6.3763,-6.3764,-6.3707,-6.3703,-6.3699,-6.3695,-6.3792,-6.38,-6.3807,-6.394,0,0,-6.3831,-6.3835,0,0,0,0,0,0,0,0,-6.3508,-6.3523,-6.3646,-6.3646,-6.3646,-6.3717,-6.371,-6.3823,-6.3708,-6.3684,-6.3698,-6.3693,-6.3773,-6.3782,-6.381,-6.3945,-6.3949,-6.3832,-6.3837,-6.384,-6.3842,0,0,0,0,0,0,0,-6.3501,-6.3518,-6.3699,-6.3648,-6.3648,-6.3632,-6.3642,-6.3731,-6.375,-6.3685,-6.3681,-6.3695,-6.3772,-6.3802,-6.3812,-6.3951,-6.3832,-6.3839,-6.3844,-6.3847,-6.4199,-6.4204,0,0,0,0,0,0,-6.3495,-6.3513,-6.3696,-6.3702,-6.3566,-6.364,-6.3651,-6.3698,-6.3749,-6.3753,-6.3698,-6.3692,-6.3791,-6.3803,-6.3815,-6.3974,-6.384,-6.3847,-6.3852,-6.4195,-6.42,-6.4205,0,0,0,0,0,0,-6.349,-6.3512,-6.3692,-6.3607,-6.3628,-6.3649,-6.3702,-6.3703,-6.3733,-6.3759,-6.3761,-6.3727,-6.3788,-6.3804,-6.391,-6.3977,-6.3851,-6.3858,-6.4189,-6.4196,-6.4203,-6.4293,0,0,0,0,0,0,-6.3483,-6.3511,-6.3563,-6.3608,-6.3633,-6.3788,-6.3706,-6.3708,-6.3748,-6.374,-6.3786,-6.379,-6.3786,-6.3899,-6.3918,-6.3985,-6.3864,-6.4183,-6.4192,-6.42,-6.4285,-6.4303,-6.4318,0,0,0,0,0,-6.3474,-6.3583,-6.3566,-6.3588,-6.3699,-6.3792,-6.3805,-6.3801,-6.3754,-6.3805,-6.3822,-6.3788,-6.3966,-6.391,-6.3931,-6.4002,-6.4179,-6.419,-6.42,-6.4277,-6.4299,-6.4318,0,0,0,0,0,0,-6.3542,-6.3589,-6.357,-6.3697,-6.3741,-6.3782,-6.3847,-6.3825,-6.3881,-6.3872,-6.3861,-6.3872,-6.3983,-6.4003,-6.3939,-6.4133,-6.4065,-6.408,-6.4116,-6.4137,-6.4154,-6.4147,-6.3871,0,0,0,0,0,-6.3573,-6.3646,-6.3681,-6.379,-6.3813,-6.3827,-6.3866,-6.386,-6.3904,-6.3921,-6.3945,-6.3988,-6.4053,-6.4096,-6.4158,-6.4287,-6.4295,-6.4346,-6.4363,-6.4376,-6.4389,-6.4459,-6.4482,-6.424,-6.4239,-6.4239,0,0,-6.3635,-6.3669,-6.3716,-6.3804,-6.3838,-6.3912,-6.3842,-6.3924,-6.3978,-6.3933,-6.4035,-6.4054,-6.4101,-6.4219,-6.4272,-6.4239,-6.4458,-6.439,-6.44,-6.4406,-6.4472,-6.4495,-6.4515,-6.4247,-6.4245,-6.4244,0,0,-6.3787,-6.382,-6.3915,-6.395,-6.4002,-6.401,-6.4033,-6.4078,-6.4089,-6.4192,-6.416,-6.4223,-6.4336,-6.4371,-6.4403,-6.4568,-6.4539,-6.4588,-6.4676,-6.4744,-6.4763,-6.478,-6.4838,-6.486,-6.4601,-6.4601,-6.4602,0,-6.3857,-6.397,-6.3965,-6.405,-6.409,-6.4054,-6.4149,-6.4182,-6.4251,-6.4278,-6.424,-6.4382,-6.441,-6.4536,-6.4577,-6.4604,-6.4628,-6.4583,-6.4761,-6.4778,-6.4793,-6.4849,-6.4871,-6.4607,-6.4606,-6.4606,-6.4605,0,-6.4054,-6.4132,-6.4202,-6.4272,-6.4319,-6.4408,-6.4415,-6.4463,-6.4452,-6.4463,-6.4568,-6.4601,-6.4669,-6.4698,-6.4687,-6.4823,-6.4801,-6.4762,-6.4693,-6.4822,-6.4874,-6.4896,-6.4615,-6.4613,-6.4611,-6.461,0,0,-6.4251,-6.4318,-6.4344,-6.4376,-6.4431,-6.449,-6.4576,-6.4645,-6.4686,-6.4734,-6.4806,-6.4903,-6.4868,-6.4904,-6.4896,-6.4956,-6.5085,-6.491,-6.4911,-6.4941,-6.5236,-6.5265,-6.529,-6.5066,-6.507,-6.5073,-6.5232,0,-6.4406,-6.4561,-6.456,-6.4702,-6.4774,-6.4741,-6.4816,-6.4857,-6.487,-6.4931,-6.4944,-6.5014,-6.4962,-6.4984,-6.5042,-6.5057,-6.5144,-6.5046,-6.5131,-6.5134,-6.5121,-6.5317,-6.5348,-6.5496,-6.5252,-6.5256,-6.5258,0,-6.4609,-6.4667,-6.4817,-6.4862,-6.4892,-6.496,-6.5023,-6.5082,-6.5127,-6.5132,-6.5174,-6.5157,-6.5243,-6.5172,-6.5289,-6.5223,-6.5257,-6.527,-6.5276,-6.5283,-6.5204,-6.533,-6.5543,-6.5566,-6.5291,-6.5288,-6.5286,0,-6.4738,-6.4853,-6.4958,-6.4985,-6.504,-6.5089,-6.5114,-6.5155,-6.5196,-6.525,-6.5276,-6.5339,-6.5373,-6.5421,-6.542,-6.5369,-6.5539,-6.5468,-6.5544,-6.5545,-6.5582,-6.558,-6.5804,-6.5604,-6.5604,-6.5603,-6.5603,0,-6.4912,-6.5005,-6.5017,-6.5081,-6.5184,-6.518,-6.5281,-6.5301,-6.5338,-6.5404,-6.5378,-6.544,-6.5436,-6.5498,-6.5498,-6.5595,-6.5611,-6.5616,-6.5615,-6.5619,-6.5618,-6.5641,-6.5631,-6.5609,-6.5608,-6.5607,-6.5606,0,-6.5074,-6.5086,-6.5198,-6.5241,-6.5254,-6.5328,-6.5364,-6.5424,-6.5435,-6.5519,-6.5539,-6.5555,-6.5627,-6.5632,-6.5714,-6.5714,-6.5832,-6.5819,-6.5818,-6.5815,-6.5892,-6.5885,-6.6139,-6.6172,-6.5951,-6.5953,-6.5954,0,-6.5184,-6.5256,-6.5308,-6.5351,-6.538,-6.545,-6.5493,-6.5491,-6.5537,-6.5593,-6.5647,-6.5717,-6.5773,-6.5889,-6.5907,-6.5969,-6.5958,-6.6042,-6.5967,-6.5968,-6.5959,-6.5955,-6.5962,-6.6057,-6.606,-6.6062,-6.6063,0,-6.5379,-6.5382,-6.5446,-6.5513,-6.5565,-6.5617,-6.5665,-6.5701,-6.5705,-6.5757,-6.5832,-6.5875,-6.596,-6.603,-6.6091,-6.6113,-6.6089,-6.6087,-6.6108,-6.6113,-6.6109,-6.6112,-6.5858,-6.6081,-6.6079,-6.6078,-6.6077,-6.6076,-6.5519,-6.5581,-6.5628,-6.57,-6.5736,-6.5782,-6.5841,-6.586,-6.5923,-6.5995,-6.5989,-6.6071,-6.6113,-6.6194,-6.6221,-6.6284,-6.6255,-6.6285,-6.6293,-6.6301,-6.6309,-6.6099,-6.6295,-6.6295,-6.6294,-6.6294,-6.6293,0,-6.5712,-6.5741,-6.5808,-6.5877,-6.5934,-6.5908,-6.596,-6.6008,-6.6082,-6.6124,-6.6181,-6.6266,-6.6333,-6.6357,-6.6422,-6.6468,-6.6458,-6.6485,-6.6482,-6.6487,-6.6331,-6.6307,-6.6492,-6.6492,-6.6492,-6.6492,-6.6492,-6.6492,-6.582,-6.5924,-6.5932,-6.6053,-6.608,-6.6163,-6.6195,-6.6236,-6.627,-6.6368,-6.6425,-6.644,-6.6475,-6.6542,-6.6602,-6.6607,-6.6632,-6.6664,-6.6664,-6.6518,-6.6498,-6.6479,-6.6456,-6.6669,-6.6669,-6.6814,-6.6816,-6.6817]}]]